STARLINK-35096

Last updated on Tue Sep 16 2025 00:02:08 GMT+0000 (Coordinated Universal Time)

1 65479U 25195X 25257.51587458 -.00745889 00000+0 -45660-2 0 9992 2 65479 53.1554 2.6931 0003630 353.9787 6.1190 15.78573609 2911
UTC large
Height (km)
Speed (km/s)
/
Latitude / Longitude
Inclination (degrees)
Orbital Period (minutes)
Azimuth
Elevation
Range (km)
Doppler Factor

Next 0 passes for location: London (51.5072 / 0.1276)

Sorry there are no passes over London.